Fort Polk, LA

10:41 PM CST on February 19, 2018 (GMT -0600)
Fort Polk

Weather History for KBKB - December, 2012

Change the Weather History Date:

Monday, December 3, 2012

  Actual Average (KPOE) Record (KPOE)
Temperature  
Mean Temperature 68 °F -  
Max Temperature 75 °F 62 °F 79 °F (2005)
Min Temperature 62 °F 43 °F 33 °F (2007)
Cooling Degree Days 4    
Growing Degree Days 18 (Base 50)    
Moisture  
Dew Point 65 °F    
Average Humidity 90    
Maximum Humidity 94    
Minimum Humidity 71    
Precipitation  
Precipitation 0.47 in - - ()
Sea Level Pressure  
Sea Level Pressure 30.13 in    
Wind  
Wind Speed 3 mph (SSE)    
Max Wind Speed 7 mph    
Max Gust Speed -    
Visibility 8 miles    
Events Rain    
Averages and records for this station are not official NWS values.
T = Trace of Precipitation, MM = Missing Value Source: NWS Daily Summary

Daily Weather History Graph

Daily Weather History Graph

Search for Another Location

Airport or City:

Trip Planner

Search our weather history database for the weather conditions in past years. The results will help you decide how hot, cold, wet, or windy it might be!

Date:

Astronomy

Dec. 03, 2012 Rise Set
Actual Time 6:54 AM CST 5:09 PM CST
Civil Twilight 6:27 AM CST 5:35 PM CST
Nautical Twilight 5:57 AM CST 6:05 PM CST
Astronomical Twilight 5:28 AM CST 6:34 PM CST
Moon 9:45 PM CST (12/3) 10:26 AM CST (12/3)
Length of Visible Light 11h 07m
Length of Day
10h 15m
Waning Gibbous, 78% of the Moon is Illuminated
Dec 3
Waning Gibbous
Dec 6
Last Quarter
Dec 13
New
Dec 19
First Quarter
Dec 28
Full

Hourly Weather History & Observations

Time (CST) Temp. Dew Point Humidity Pressure Visibility Wind Dir Wind Speed Gust Speed Precip Events Conditions
12:54 AM 64.9 °F 63.0 °F 93% 30.21 in 10.0 mi Variable 3.5 mph - N/A   Mostly Cloudy
1:04 AM 64.4 °F 62.6 °F 94% 30.12 in 10.0 mi Calm Calm - N/A   Mostly Cloudy
1:30 AM 64.4 °F 62.6 °F 94% 30.12 in 9.0 mi Variable 3.5 mph - N/A   Mostly Cloudy
1:37 AM 64.4 °F 62.6 °F 94% 30.12 in 9.0 mi Calm Calm - N/A   Mostly Cloudy
1:54 AM 64.9 °F 62.1 °F 90% 30.19 in 10.0 mi Calm Calm - N/A   Partly Cloudy
2:54 AM 64.0 °F 62.1 °F 93% 30.19 in 10.0 mi Variable 4.6 mph - N/A   Clear
3:54 AM 63.0 °F 61.0 °F 93% 30.19 in 9.0 mi Variable 3.5 mph - 0.01 in   Scattered Clouds
4:20 AM 62.6 °F 60.8 °F 94% 30.11 in 8.0 mi Calm Calm - N/A   Partly Cloudy
4:47 AM 62.6 °F 60.8 °F 94% 30.10 in 7.0 mi Variable 3.5 mph - N/A   Overcast
4:54 AM 63.0 °F 61.0 °F 93% 30.18 in 7.0 mi Variable 4.6 mph - N/A   Overcast
5:18 AM 64.4 °F 62.6 °F 94% 30.10 in 10.0 mi Variable 3.5 mph - N/A   Overcast
5:54 AM 64.0 °F 61.0 °F 90% 30.19 in 10.0 mi Variable 3.5 mph - N/A   Overcast
6:54 AM 63.0 °F 61.0 °F 93% 30.21 in 10.0 mi Calm Calm - N/A   Overcast
7:54 AM 64.0 °F 61.0 °F 90% 30.22 in 10.0 mi Calm Calm - N/A   Overcast
8:54 AM 66.9 °F 63.0 °F 87% 30.22 in 10.0 mi Variable 4.6 mph - N/A   Overcast
9:54 AM 72.0 °F 64.0 °F 76% 30.21 in 10.0 mi Variable 3.5 mph - N/A   Mostly Cloudy
10:54 AM 73.0 °F 64.0 °F 73% 30.19 in 10.0 mi Variable 5.8 mph - N/A   Overcast
11:13 AM 73.4 °F 64.4 °F 73% 30.10 in 10.0 mi Variable 5.8 mph - N/A   Overcast
11:54 AM 73.9 °F 64.0 °F 71% 30.18 in 10.0 mi Variable 6.9 mph - N/A   Overcast
12:33 PM 73.4 °F 64.4 °F 73% 30.08 in 10.0 mi Variable 4.6 mph - N/A   Overcast
12:54 PM 75.0 °F 64.9 °F 71% 30.14 in 10.0 mi Variable 4.6 mph - N/A   Overcast
1:37 PM 69.8 °F 66.2 °F 88% 30.07 in 1.8 mi Variable 5.8 mph - 0.04 in Rain Heavy Rain
1:47 PM 69.8 °F 66.2 °F 88% 30.06 in 3.0 mi Calm Calm - 0.05 in Rain Light Rain
1:54 PM 70.0 °F 68.0 °F 93% 30.14 in 8.0 mi Calm Calm - 0.05 in Rain Light Rain
2:54 PM 72.0 °F 68.0 °F 87% 30.13 in 10.0 mi Calm Calm - 0.01 in   Overcast
3:29 PM 69.8 °F 66.2 °F 88% 30.06 in 1.8 mi Variable 5.8 mph - 0.03 in Rain Rain
3:36 PM 69.8 °F 66.2 °F 88% 30.06 in 3.0 mi Variable 3.5 mph - 0.04 in Rain Light Rain
3:54 PM 69.1 °F 66.0 °F 90% 30.15 in 4.0 mi Calm Calm - 0.05 in Rain Light Rain
4:44 PM 68.0 °F 66.2 °F 94% 30.06 in 1.8 mi Calm Calm - 0.06 in Rain Heavy Rain
4:49 PM 68.0 °F 66.2 °F 94% 30.06 in 2.0 mi Calm Calm - 0.08 in Rain Rain
4:54 PM 68.0 °F 66.0 °F 93% 30.15 in 2.0 mi Calm Calm - 0.11 in Rain Rain
5:07 PM 68.0 °F 66.2 °F 94% 30.06 in 1.2 mi Calm Calm - 0.11 in Rain Heavy Rain
5:20 PM 68.0 °F 66.2 °F 94% 30.07 in 2.0 mi Variable 3.5 mph - 0.23 in Rain Light Rain
5:27 PM 68.0 °F 66.2 °F 94% 30.07 in 7.0 mi Variable 4.6 mph - 0.23 in Rain Light Rain
5:43 PM 68.0 °F 66.2 °F 94% 30.07 in 10.0 mi SSE 6.9 mph - 0.23 in   Overcast
5:54 PM 68.0 °F 66.0 °F 93% 30.15 in 10.0 mi Variable 4.6 mph - 0.23 in   Overcast
6:06 PM 68.0 °F 66.2 °F 94% 30.07 in 10.0 mi Variable 4.6 mph - N/A   Mostly Cloudy
6:54 PM 68.0 °F 66.0 °F 93% 30.15 in 10.0 mi Calm Calm - N/A   Overcast
7:20 PM 68.0 °F 66.2 °F 94% 30.07 in 10.0 mi Variable 3.5 mph - N/A   Overcast
7:33 PM 68.0 °F 66.2 °F 94% 30.07 in 10.0 mi Variable 3.5 mph - N/A   Overcast
7:47 PM 68.0 °F 66.2 °F 94% 30.06 in 9.0 mi Variable 4.6 mph - N/A   Overcast
7:54 PM 68.0 °F 66.0 °F 93% 30.15 in 4.0 mi Variable 3.5 mph - 0.01 in Rain Light Rain
8:54 PM 68.0 °F 66.0 °F 93% 30.16 in 10.0 mi Calm Calm - 0.00 in   Overcast
9:54 PM 68.0 °F 66.0 °F 93% 30.16 in 10.0 mi Variable 4.6 mph - N/A   Overcast
10:54 PM 68.0 °F 66.0 °F 93% 30.16 in 10.0 mi Variable 5.8 mph - N/A   Overcast
11:54 PM 68.0 °F 66.0 °F 93% 30.16 in 10.0 mi Calm Calm - 0.00 in   Overcast